<?xml version="1.0"?>
<gpx xmlns="http://www.topografix.com/GPX/1/1" xmlns:xsi="http://www.w3.org/2001/XMLSchema-instance" version="1.1" creator="GPX RubyGem 1.0.0 -- http://dougfales.github.io/gpx/" xsi:schemaLocation="http://www.topografix.com/GPX/1/1 http://www.topografix.com/GPX/1/1/gpx.xsd">
  <metadata>
    <name/>
    <time>2026-05-10T20:38:02+00:00</time>
    <bound minlat="90.0" minlon="180.0" maxlat="-90.0" maxlon="-180.0"/>
  </metadata>
  <trk>
    <name/>
    <trkseg>
      <trkpt lat="51.582774" lon="7.031126">
        <time>1970-01-01T00:00:00+00:00</time>
        <ele>71.0</ele>
      </trkpt>
      <trkpt lat="51.582697" lon="7.031161">
        <time>1970-01-01T00:00:00+00:00</time>
        <ele>70.0</ele>
      </trkpt>
      <trkpt lat="51.582712" lon="7.031317">
        <time>1970-01-01T00:00:00+00:00</time>
        <ele>71.0</ele>
      </trkpt>
      <trkpt lat="51.582763" lon="7.031539">
        <time>1970-01-01T00:00:00+00:00</time>
        <ele>72.0</ele>
      </trkpt>
      <trkpt lat="51.582684" lon="7.031521">
        <time>1970-01-01T00:00:00+00:00</time>
        <ele>71.0</ele>
      </trkpt>
      <trkpt lat="51.582589" lon="7.031571">
        <time>1970-01-01T00:00:00+00:00</time>
        <ele>71.0</ele>
      </trkpt>
      <trkpt lat="51.582482" lon="7.031689">
        <time>1970-01-01T00:00:00+00:00</time>
        <ele>71.0</ele>
      </trkpt>
      <trkpt lat="51.58237" lon="7.03185">
        <time>1970-01-01T00:00:00+00:00</time>
        <ele>72.0</ele>
      </trkpt>
      <trkpt lat="51.582263" lon="7.032072">
        <time>1970-01-01T00:00:00+00:00</time>
        <ele>75.0</ele>
      </trkpt>
      <trkpt lat="51.582161" lon="7.032245">
        <time>1970-01-01T00:00:00+00:00</time>
        <ele>77.0</ele>
      </trkpt>
      <trkpt lat="51.581938" lon="7.032336">
        <time>1970-01-01T00:00:00+00:00</time>
        <ele>80.0</ele>
      </trkpt>
      <trkpt lat="51.581819" lon="7.032386">
        <time>1970-01-01T00:00:00+00:00</time>
        <ele>81.0</ele>
      </trkpt>
      <trkpt lat="51.581654" lon="7.032417">
        <time>1970-01-01T00:00:00+00:00</time>
        <ele>82.0</ele>
      </trkpt>
      <trkpt lat="51.581563" lon="7.032526">
        <time>1970-01-01T00:00:00+00:00</time>
        <ele>82.0</ele>
      </trkpt>
      <trkpt lat="51.581086" lon="7.032775">
        <time>1970-01-01T00:00:00+00:00</time>
        <ele>82.0</ele>
      </trkpt>
      <trkpt lat="51.581069" lon="7.033141">
        <time>1970-01-01T00:00:00+00:00</time>
        <ele>79.0</ele>
      </trkpt>
      <trkpt lat="51.581044" lon="7.033323">
        <time>1970-01-01T00:00:00+00:00</time>
        <ele>78.0</ele>
      </trkpt>
      <trkpt lat="51.580979" lon="7.033566">
        <time>1970-01-01T00:00:00+00:00</time>
        <ele>78.0</ele>
      </trkpt>
      <trkpt lat="51.580868" lon="7.033838">
        <time>1970-01-01T00:00:00+00:00</time>
        <ele>78.0</ele>
      </trkpt>
      <trkpt lat="51.580868" lon="7.033838">
        <time>1970-01-01T00:00:00+00:00</time>
        <ele>78.0</ele>
      </trkpt>
      <trkpt lat="51.580979" lon="7.033566">
        <time>1970-01-01T00:00:00+00:00</time>
        <ele>78.0</ele>
      </trkpt>
      <trkpt lat="51.581044" lon="7.033323">
        <time>1970-01-01T00:00:00+00:00</time>
        <ele>78.0</ele>
      </trkpt>
      <trkpt lat="51.581069" lon="7.033141">
        <time>1970-01-01T00:00:00+00:00</time>
        <ele>79.0</ele>
      </trkpt>
      <trkpt lat="51.581086" lon="7.032775">
        <time>1970-01-01T00:00:00+00:00</time>
        <ele>82.0</ele>
      </trkpt>
      <trkpt lat="51.581563" lon="7.032526">
        <time>1970-01-01T00:00:00+00:00</time>
        <ele>82.0</ele>
      </trkpt>
      <trkpt lat="51.581654" lon="7.032417">
        <time>1970-01-01T00:00:00+00:00</time>
        <ele>82.0</ele>
      </trkpt>
      <trkpt lat="51.581819" lon="7.032386">
        <time>1970-01-01T00:00:00+00:00</time>
        <ele>81.0</ele>
      </trkpt>
      <trkpt lat="51.581938" lon="7.032336">
        <time>1970-01-01T00:00:00+00:00</time>
        <ele>80.0</ele>
      </trkpt>
      <trkpt lat="51.582161" lon="7.032245">
        <time>1970-01-01T00:00:00+00:00</time>
        <ele>77.0</ele>
      </trkpt>
      <trkpt lat="51.582263" lon="7.032072">
        <time>1970-01-01T00:00:00+00:00</time>
        <ele>75.0</ele>
      </trkpt>
      <trkpt lat="51.58237" lon="7.03185">
        <time>1970-01-01T00:00:00+00:00</time>
        <ele>72.0</ele>
      </trkpt>
      <trkpt lat="51.582482" lon="7.031689">
        <time>1970-01-01T00:00:00+00:00</time>
        <ele>71.0</ele>
      </trkpt>
      <trkpt lat="51.582589" lon="7.031571">
        <time>1970-01-01T00:00:00+00:00</time>
        <ele>71.0</ele>
      </trkpt>
      <trkpt lat="51.582684" lon="7.031521">
        <time>1970-01-01T00:00:00+00:00</time>
        <ele>71.0</ele>
      </trkpt>
      <trkpt lat="51.582763" lon="7.031539">
        <time>1970-01-01T00:00:00+00:00</time>
        <ele>72.0</ele>
      </trkpt>
      <trkpt lat="51.582712" lon="7.031317">
        <time>1970-01-01T00:00:00+00:00</time>
        <ele>71.0</ele>
      </trkpt>
      <trkpt lat="51.582697" lon="7.031161">
        <time>1970-01-01T00:00:00+00:00</time>
        <ele>70.0</ele>
      </trkpt>
      <trkpt lat="51.582774" lon="7.031126">
        <time>1970-01-01T00:00:00+00:00</time>
        <ele>71.0</ele>
      </trkpt>
    </trkseg>
  </trk>
</gpx>
